Location: Barcelona
(41.3830°N, 2.1830°E)
Time: 23:13:48
(UTC+02:00)

ISS - Pass Details

Date: 25 May 2019
Orbit: 408 x 418 km, 51.6° (Epoch: 26 May)

Event Time Altitude Azimuth Distance (km) Brightness Sun altitude
Rises 01:50:23 0° 308° (NW) 2,359 0.6 -27.8°
Reaches altitude 10° 01:52:33 10° 315° (NW) 1,495 -0.5 -27.7°
Enters shadow 01:53:08 14° 319° (NW) 1,272 -0.8 -27.7°
